Regional Weather Roundup
Issued by NWS

Home | Current Version | Previous Version | Text Only | Print | Product List | Glossary On
Versions: 1 2 3 4 5 6 7 8 9 10 11 12 13 14 15 16 17 18 19 20 21 22 23 24 25 26 27 28 29 30 31 32 33 34 35 36 37 38 39 40 41 42 43 44 45 46 47 48 49 50
000
ASUS43 KDTX 101210
RWRMI
MICHIGAN HOURLY REGIONAL WEATHER ROUNDUP
NATIONAL WEATHER SERVICE DETROIT/PONTIAC MI
700 AM EST SAT DEC 10 2016

NOTE: "FAIR" INDICATES FEW OR NO CLOUDS BELOW 12,000 FEET WITH NO
SIGNIFICANT WEATHER AND/OR OBSTRUCTION TO VISIBILITY.

MIZ047>049-052>055-059>063-066>070-074>076-081>083-101300-
SOUTHEAST LOWER MICHIGAN

CITY           SKY/WX    TMP DP  RH WIND       PRES   REMARKS
ADRIAN         PTCLDY    20  17  88 W8        30.46S WCI  10
6HR MIN TEMP:  20; 6HR MAX TEMP:  23;

ALMA           MOCLDY    20  15  81 SW6       30.41S WCI  12
ANN ARBOR      CLOUDY    20  17  88 SW8       30.44R WCI  10
BAD AXE        CLOUDY    23  15  71 NW10G17   30.37S WCI  13
CARO           CLEAR     20  15  79 W6        30.38S WCI  13
DETROIT CITY   CLOUDY    24  19  81 W7        30.43R WCI  16
6HR MIN TEMP:  24; 6HR MAX TEMP:  25;

DETROIT        CLOUDY    24  18  77 SW12      30.45S WCI  13
6HR MIN TEMP:  24; 6HR MAX TEMP:  25; 6HR PCP: TRACE;

FLINT          CLEAR     19  15  84 W6        30.41  WCI  11
6HR MIN TEMP:  19; 6HR MAX TEMP:  24;

GROSSE ILE     CLOUDY    24  19  80 W9        30.45R WCI  14
6HR MIN TEMP:  24; 6HR MAX TEMP:  26;

HILLSDALE      LGT SNOW  19  14  79 SW7       30.42R WCI  10
HOWELL         CLOUDY    22  17  84 W6        30.41S WCI  14

CITY           SKY/WX    TMP DP  RH WIND       PRES   REMARKS
JACKSON        LGT SNOW  20  16  84 SW8       30.43R WCI  10
6HR MIN TEMP:  19; 6HR MAX TEMP:  22; 6HR PCP: TRACE;

LAMBERTVILLE   PTCLDY    23  17  76 W6        30.48R WCI  16
6HR MIN TEMP:  23; 6HR MAX TEMP:  27;

LANSING        FLURRIES  20  16  84 SW10      30.43R WCI   9
6HR MIN TEMP:  20; 6HR MAX TEMP:  23; 6HR PCP: TRACE;

LAPEER         NOT AVBL
MASON          LGT SNOW  21  19  93 SW5       30.43S WCI  14
MONROE         CLOUDY    23  19  83 W9        30.46R WCI  13
6HR MIN TEMP:  23; 6HR MAX TEMP:  26;

MT. CLEMENS    CLOUDY    25  16  70 W13       30.40R WCI  13
6HR MIN TEMP:  24; 6HR MAX TEMP:  25;

PONTIAC        PTCLDY    21  16  81 W8        30.39R WCI  11
6HR MIN TEMP:  21; 6HR MAX TEMP:  23;

PORT HOPE        N/A     25  15  66 W8        30.34R WCI  16
6HR MIN TEMP:  25; 6HR MAX TEMP:  26;

PORT HURON     MOCLDY    23  18  80 W7        30.40S WCI  15
TRI CITIES     CLEAR     20  13  74 W8        30.40S WCI  10
6HR MIN TEMP:  20; 6HR MAX TEMP:  25;

MIDLAND        FAIR      21  12  68 W3        30.40R
6HR MIN TEMP:  21; 6HR MAX TEMP:  25;

TROY           CLOUDY    25  15  66 W7        30.44R WCI  17
SAGINAW HB     CLEAR     21  12  68 SW5       30.40R WCI  15
$$
MIZ043>046-050>051-056>058-064>065-071>073-077>080-101300-
SOUTHWEST LOWER MICHIGAN

CITY           SKY/WX    TMP DP  RH WIND       PRES   REMARKS
BATTLE CREEK   LGT SNOW  20  18  92 SW12      30.43S FOG     WCI   8
6HR MIN TEMP:  20; 6HR MAX TEMP:  22; 6HR PCP:  0.01;

BENTON HARBOR  LGT SNOW  25  18  74 W13       30.47R WCI  14
6HR MIN TEMP:  25; 6HR MAX TEMP:  27; 6HR PCP: TRACE;

BIG RAPIDS     LGT SNOW  19  16  86 W5        30.37S WCI  13
6HR MIN TEMP:  19; 6HR MAX TEMP:  22;

COLDWATER      LGT SNOW  19  17  89 SW8       30.45S WCI   9
6HR MIN TEMP:  19; 6HR MAX TEMP:  21;

FREMONT        LGT SNOW  20  19  96 CALM      30.40S
HOLLAND        LGT SNOW  25  19  78 W10       30.43R WCI  15
6HR MIN TEMP:  24; 6HR MAX TEMP:  26; 6HR PCP:  0.03;

GRAND RAPIDS   LGT SNOW  21  18  88 S5        30.42S FOG     WCI  15
6HR MIN TEMP:  20; 6HR MAX TEMP:  23; 6HR PCP:  0.04;

IONIA          LGT SNOW  20  18  92 SW5       30.41S WCI  14
6HR MIN TEMP:  17; 6HR MAX TEMP:  22;

KALAMAZOO      LGT SNOW  22  17  81 SW10      30.44S WCI  11
6HR MIN TEMP:  21; 6HR MAX TEMP:  22; 6HR PCP:  0.01;

LUDINGTON      LGT SNOW  23  16  75 W9        30.39S WCI  13
6HR MIN TEMP:  23; 6HR MAX TEMP:  24;

MARSHALL       LGT SNOW  20  17  89 SW7       30.43S WCI  11
6HR MIN TEMP:  19; 6HR MAX TEMP:  22;

MOUNT PLEASANT CLEAR     18  11  74 SW3       30.39R
6HR MIN TEMP:  18; 6HR MAX TEMP:  24;

MUSKEGON       FLURRIES  26  17  68 W12       30.42R WCI  16
6HR MIN TEMP:  24; 6HR MAX TEMP:  27; 6HR PCP:  0.06;

SOUTH HAVEN    LGT SNOW  26  22  85 W13       30.45S WCI  14
$$
MIZ016>042-101300-
NORTHERN LOWER MICHIGAN

CITY           SKY/WX    TMP DP  RH WIND       PRES   REMARKS
ALPENA         LGT SNOW  22  18  85 W5        30.34R FOG     WCI  16
6HR MIN TEMP:  20; 6HR MAX TEMP:  22; 6HR PCP: TRACE;

BEAVER ISLAND  MOCLDY    19  11  70 W9G22     30.34S WCI   8
6HR MIN TEMP:  19; 6HR MAX TEMP:  22;

BELLAIRE       LGT SNOW  22  18  87 SW3       30.37R
6HR MIN TEMP:  21; 6HR MAX TEMP:  24;

CADILLAC       MOCLDY    16  12  84 W7        30.32S WCI   7
CHARLEVOIX     LGT SNOW  22  15  75 W18G26    30.37R WCI   8
6HR MIN TEMP:  22; 6HR MAX TEMP:  26;

FRANKFORT      FLURRIES  23  14  69 W9G18     30.37S WCI  13
GAYLORD        LGT SNOW  18  12  77 W14       30.29S WCI   4
6HR MIN TEMP:  17; 6HR MAX TEMP:  21; 6HR PCP:  0.05;

GRAYLING       MOCLDY    16  12  84 SW5       30.33S WCI   9
6HR MIN TEMP:  14; 6HR MAX TEMP:  22;

HARBOR SPRINGS CLOUDY    21  13  71 W12G17    30.32S WCI   9
HOUGHTON LAKE  CLOUDY    19  13  77 W12       30.34S WCI   7
6HR MIN TEMP:  19; 6HR MAX TEMP:  20;

MANISTEE       FLURRIES  21  12  68 W15       30.39S WCI   8
OSCODA         CLOUDY    23  13  68 MISG      30.35R
6HR MIN TEMP:  22; 6HR MAX TEMP:  25;

PELLSTON       CLOUDY    20  10  65 W12       30.33R WCI   8
6HR MIN TEMP:  20; 6HR MAX TEMP:  22; 6HR PCP: TRACE;

ROGERS CITY    CLOUDY    21  17  83 SW6       30.33S WCI  14
TRAVERSE CITY  LGT SNOW  20  16  84 CALM      30.36S VSB 1
6HR MIN TEMP:  20; 6HR MAX TEMP:  24; 6HR PCP: TRACE;

$$
MIZ007>008-015-101300-
EASTERN UPPER MICHIGAN

CITY           SKY/WX    TMP DP  RH WIND       PRES   REMARKS
KINROSS        MOCLDY    10   8  92 SW6       30.30R WCI   0
6HR MIN TEMP:  10; 6HR MAX TEMP:  16; 6HR PCP: TRACE;

MACKINAC ISLAN FLURRIES  20  15  79 W14G21    30.30S WCI   7
NEWBERRY       MOCLDY     6   4  89 W7        30.30S WCI  -5
6HR MIN TEMP:   6; 6HR MAX TEMP:  15;

S. S. MARIE    CLOUDY    15  12  88 S5        30.29S WCI   8
6HR MIN TEMP:  14; 6HR MAX TEMP:  18; 6HR PCP: TRACE;

MUNISING         N/A     11   2  67 W10G17    30.33S WCI  -3
6HR MIN TEMP:   7; 6HR MAX TEMP:  11;

$$
MIZ004>006-011>014-085-101300-
CENTRAL UPPER MICHIGAN

CITY           SKY/WX    TMP DP  RH WIND       PRES   REMARKS
MANISTIQUE     CLEAR      8   3  80 W10G16    30.35R WCI  -6
6HR MIN TEMP:   8; 6HR MAX TEMP:  13;

ESCANABA       CLEAR     10   2  69 W10       30.39F WCI  -4
6HR MIN TEMP:  10; 6HR MAX TEMP:  14;

MENOMINEE      CLOUDY    15   5  64 N7        30.42R WCI   5
6HR MIN TEMP:  15; 6HR MAX TEMP:  19; 6HR PCP: TRACE;

SAWYER-GWINN   CLEAR      7   1  78 W12       30.31S WCI  -9
$$
MIZ001>003-009>011-084-101300-
WESTERN UPPER MICHIGAN

CITY           SKY/WX    TMP DP  RH WIND       PRES   REMARKS
IRON MOUNTAIN  CLEAR      8  -4  58 W9        30.35S WCI  -5
6HR MIN TEMP:   8; 6HR MAX TEMP:  14;

HOUGHTON       SNOW      14   9  80 W12       30.31S VSB 1/2 WCI   0
6HR MIN TEMP:  13; 6HR MAX TEMP:  14; 6HR PCP:  0.01;

COPPER HARBOR    N/A     20  14  77 NE14      30.33R WCI   7
6HR MIN TEMP:  18; 6HR MAX TEMP:  22; 6HR PCP:  0.12;

IRONWOOD       LGT SNOW   6   2  83 W12       30.40R FOG     WCI  -9
6HR MIN TEMP:   6; 6HR MAX TEMP:   8; 6HR PCP: TRACE;

$$

ABBREVIATIONS USED IN REMARKS
   TC - TEMPERATURE IN CELSIUS
  WCI - WIND CHILL INDEX
   HX - HEAT INDEX
  VSB - VISIBILITY





USA.gov is the U.S. government's official web portal to all federal, state and local government web resources and services.